Regional Weather Roundup
Issued by NWS Upton, NY

Current Version | Previous Version | Graphics & Text | Print | Product List | Glossary Off
Versions: 1 2 3 4 5 6 7 8 9 10 11 12 13 14 15 16 17 18 19 20 21 22 23 24 25 26 27 28 29 30 31 32 33 34 35 36 37 38 39 40 41 42 43 44 45 46 47 48 49 50

000
ASUS41 KOKX 272205
RWROKX

REGIONAL WEATHER ROUNDUP
NATIONAL WEATHER SERVICE NEW YORK NY
600 PM EDT WED AUG 27 2014

NOTE: "FAIR" INDICATES FEW OR NO CLOUDS BELOW 12,000 FEET WITH NO
SIGNIFICANT WEATHER AND/OR OBSTRUCTIONS TO VISIBILITY.

NYZ071-072-176-178-NJZ106-104-272300-
NEW YORK CITY METRO AREA


CITY           SKY/WX    TMP DP  RH WIND       PRES   REMARKS
CENTRAL PARK   SUNNY     86  64  47 VRB3      29.90F
LAGUARDIA APRT MOSUNNY   86  65  49 S10       29.87F
KENNEDY INTL   MOSUNNY   82  64  54 S15       29.89F
NEWARK/LIBERTY MOSUNNY   91  64  40 SW9G17    29.87F HX  92
BRNX BOT. GARD   N/A     84  64  51 SE3       29.88S
TETERBORO      MOSUNNY   91  65  41 W10       29.86S HX  93
$$

NYZ177-179-078>081-272300-
LONG ISLAND NEW YORK

CITY           SKY/WX    TMP DP  RH WIND       PRES   REMARKS
FARMINGDALE    SUNNY     81  62  52 SW12      29.89F
ISLIP          MOSUNNY   81  62  52 SW10      29.88F
SHIRLEY        SUNNY     80  64  58 S10       29.91S
WESTHAMPTON    SUNNY     77  65  66 S9        29.92F
MONTAUK POINT    N/A     76  64  66 S9        29.92F
$$

NYZ052-065-067-272300-
HUDSON VALLEY

CITY           SKY/WX    TMP DP  RH WIND       PRES   REMARKS
WHITE PLAINS   MOSUNNY   84  63  49 S7        29.89S
NEWBURGH       PTSUNNY   88  72  58 W12       29.89S HX  94
MONTGOMERY     MOSUNNY   86  69  56 SW12      29.87S HX  90
POUGHKEEPSIE   TSTM      81  68  64 W5G17     29.86R
ALBANY         PTSUNNY   80  67  64 W10       29.91R
$$

NJZ001-105-106-008-010-013-015-019>022-104-272300-
NEW JERSEY

CITY           SKY/WX    TMP DP  RH WIND       PRES   REMARKS
NEWARK/LIBERTY MOSUNNY   91  64  40 SW9G17    29.87F HX  92
TETERBORO      MOSUNNY   91  65  41 W10       29.86S HX  93
CALDWELL       SUNNY     88  66  48 SW6       29.88F HX  90
MORRISTOWN     MOSUNNY   90  66  45 W9        29.89F HX  92
SOMERVILLE     SUNNY     89  67  47 VRB5      29.87F HX  92
LINDEN         FAIR      94  65  37 W8        29.89S HX  96
SUSSEX         TSTM      78  70  76 W12G21    29.92R
ANDOVER          N/A     85  67  54 SW7       29.91S
TRENTON        MOSUNNY   88  65  46 SW6       29.89F HX  90
MILLVILLE      SUNNY     85  64  49 W8        29.93S
ATLANTIC CITY  SUNNY     81  65  58 S10       29.92S
WRIGHTSTOWN    SUNNY     86  66  50 SW9       29.88F
TOMS RIVER     SUNNY     88  61  40 SW5       29.90F
BELMAR         SUNNY     82  64  54 S6        29.91S
$$

PAZ047>061-062-071-272300-
EASTERN PENNSYLVANIA

CITY           SKY/WX    TMP DP  RH WIND       PRES   REMARKS
PHILADELPHIA   MOSUNNY   88  65  46 SW10      29.91S HX  90
ALLENTOWN      SUNNY     87  68  52 W10       29.91F HX  90
SCRANTON       PTSUNNY   83  67  58 NW6       29.92F
$$

CTZ002-004>006-009-010-012-RIZ004-006-007-MAZ004-011-015-272300-
SOUTHERN NEW ENGLAND
 IN CT

CITY           SKY/WX    TMP DP  RH WIND       PRES   REMARKS
BRADLEY INTL   PTSUNNY   87  67  51 SW9       29.85S HX  90
HARTFORD       SUNNY     85  65  51 S10       29.85S
DANBURY        MOSUNNY   85  65  51 S10       29.89F
WTRBRY/OXFORD  MOSUNNY   82  66  57 S10       29.92F
BRIDGEPORT     SUNNY     84  66  54 S13       29.87F
MERIDEN        SUNNY     84  63  49 S10       29.87S
NEW HAVEN      SUNNY     83  67  58 S7        29.88F
CHESTER        FAIR      81  64  57 SW7       29.91S
GROTON         SUNNY     73  68  84 S10       29.89F
WILLIMANTIC    SUNNY     83  66  56 S10       29.88S

 IN RI

CITY           SKY/WX    TMP DP  RH WIND       PRES   REMARKS
PROVIDENCE     MOSUNNY   82  63  52 SW14      29.88F
BLOCK ISLAND   SUNNY     73  66  78 SW13      29.91F
WESTERLY       SUNNY     76  64  66 S10       29.91F

 IN MA

CITY           SKY/WX    TMP DP  RH WIND       PRES   REMARKS
BOSTON         MOSUNNY   87  68  52 SW10G24   29.84S HX  90
WORCESTER      CLOUDY    77  67  71 NW14G24   29.91S
WESTFIELD      TSTM      77  70  79 NW18G28   29.87R
PROVINCETOWN   SUNNY     75  63  64 SW15G21   29.87F
NANTUCKET      SUNNY     71  68  90 SW9       29.92S
$$

ANZ330-335-338-340-345-350-353-355-272300-
COASTAL MARINE OBSERVATIONS


STATION/POSITION TIME  SKY/WX   TEMP    WIND        PRES    VSBY  WAVE
                                AIR SEA DIR/SP/G                  HT/PER
                 (UTC)          (F)     (DEG/KT/KT) (MB)    (MI)  (FT/S)
NY HARB ENTRANCE NOT AVBL
4S FIRE IS       NOT AVBL
23SW MTP         2200                                 N/A           5/12
HUDSON CANYON    2200            75 76  240/  4/  4 1013.6          6/12
EXECUTION ROCKS  2200            83 75  200/ 14/ 17   N/A
WESTERN LI SOUND 2200            82     180/ 10/ 14   N/A           1
CENTRAL LI SOUND 2100            79 76  200/ 10/ 12   N/A           1
EASTERN LI SOUND 2100            74 69  210/  6/  8   N/A
ROBBINS REEF     2200            81     160/ 17/ 18   N/A
$$


>>>>>>>>>>>>>>>>>>>>>>>>>>>> KEY <<<<<<<<<<<<<<<<<<<<<<<<<<<
>                                                          <
>     SKY/WX - SKY CONDITION/PRESENT WEATHER               <
>     TMP    - TEMPERATURE IN FAHRENHEIT                   <
>     DP     - DEWPOINT IN FAHRENHEIT                      <
>     RH     - RELATIVE HUMIDITY IN PERCENT                <
>     WIND   - DIRECTION AND SPEED IN MPH                  <
>     PRES   - MEAN SEA LEVEL PRESSURE IN INCHES OF HG     <
>     WCI    - WIND CHILL INDEX                            <
>     VSB    - VISIBILITY IN MILES                         <
>     HX     - HEAT INDEX                                  <
>     TC     - TEMPERATURE IN CELSIUS                      <
>     VRB    - VARIABLE WIND DIRECTION                     <
>                                                          <
>>>>>>>>>>>>>>>>>>>>>>>>>>>> KEY <<<<<<<<<<<<<<<<<<<<<<<<<<<





USA.gov is the U.S. government's official web portal to all federal, state and local government web resources and services.